Regional Weather Roundup
Issued by NWS

Home | Current Version | Previous Version | Graphics & Text | Print | Product List | Glossary On
Versions: 1 2 3 4 5 6 7 8 9 10 11 12 13 14 15 16 17 18 19 20 21 22 23 24 25 26 27 28 29 30 31 32 33 34 35 36 37 38 39 40 41 42 43 44 45 46 47 48 49 50
904
ASUS45 KCYS 271310
RWRWY

WYOMING REGIONAL WEATHER ROUNDUP
NATIONAL WEATHER SERVICE CHEYENNE WY
700 AM MDT SAT MAY 27 2017

NOTE:  "FAIR" INDICATES FEW OR NO CLOUDS BELOW 12,000 FEET
WITH NO SIGNIFICANT WEATHER AND/OR OBSTRUCTIONS TO VISIBILITY.

WYZ001-271400-
YELLOWSTONE NATIONAL PARK

CITY           SKY/WX    TMP DP  RH WIND       PRES   REMARKS
LK YELLOWSTONE   N/A     31  31 100 CALM      30.24R
W YELLOWSTONE  NOT AVBL

$$
WYZ002>013-054>058-071-098>099-271400-
NORTHERN WYOMING

CITY           SKY/WX    TMP DP  RH WIND       PRES   REMARKS
JACKSON        MOSUNNY   28  28 100 CALM      30.21R
CODY           FAIR      44  35  70 SW6       30.13R
GREYBULL       FAIR      41  36  82 E3        30.12R
WORLAND        FAIR      41  41 100 SW6       30.12R
SHERIDAN       FAIR      48  41  76 NE3       30.06R
BUFFALO        PTSUNNY   49  35  58 W7        30.08S
GILLETTE       FAIR      46  43  89 W14       30.05R
HULETT         FAIR      48  41  76 SW8       30.05S
NEWCASTLE      FAIR      46  41  81 NW6       30.06R

$$
WYZ014>020-022>026-101>103-271400-
CENTRAL WYOMING

CITY           SKY/WX    TMP DP  RH WIND       PRES   REMARKS
BIG PINEY      FAIR      36  31  82 NE8       30.18R WCI  30
PINEDALE       FAIR      32  30  93 NW3       30.18R
DUBOIS         FAIR      32  30  93 CALM      30.16S
LANDER         FAIR      40  36  86 SW8       30.12R WCI  34
RIVERTON       FAIR      41  38  89 NW12      30.13R
CASPER         CLOUDY    44  42  93 SW6       30.10R
DOUGLAS        CLOUDY    43  40  89 NW5       30.09R

$$
WYZ021-027>030-104>119-271400-
SOUTHERN WYOMING

CITY           SKY/WX    TMP DP  RH WIND       PRES   REMARKS
EVANSTON       FAIR      35  34  96 N6        30.20R WCI  30
KEMMERER         N/A     34  32  93 NW3       30.20R
FORT BRIDGER   FAIR      37  34  89 W10       30.22R WCI  30
ROCK SPRINGS   CLOUDY    38  36  92 SW3       30.16R
DIXON            N/A     41  39  93 CALM      30.16S
RAWLINS        CLOUDY    39  35  86 CALM      30.13R
SARATOGA       RAIN      36  36 100 W9        30.15R WCI  29
LARAMIE        CLOUDY    40  37  89 N3        30.10S
CHEYENNE       CLOUDY    43  39  86 N10       30.07S
TORRINGTON     FAIR      48  47  96 W5        30.04R
PINE BLUFFS    CLOUDY    45  43  93 MISG      30.06R

$$




USA.gov is the U.S. government's official web portal to all federal, state and local government web resources and services.